Regional Weather Roundup
Issued by NWS

Home | Current Version | Previous Version | Graphics & Text | Print | Product List | Glossary On
Versions: 1 2 3 4 5 6 7 8 9 10 11 12 13 14 15 16 17 18 19 20 21 22 23 24 25 26 27 28 29 30 31 32 33 34 35 36 37 38 39 40 41 42 43 44 45 46 47 48 49 50
000
ASUS43 KMPX 250410
RWRMN
WEATHER ROUNDUP FOR MINNESOTA
NATIONAL WEATHER SERVICE TWIN CITIES/CHANHASSEN MN
1100 PM CDT SAT JUN 24 2017


NOTE: "FAIR" INDICATES FEW OR NO CLOUDS BELOW 12,000 FEET WITH NO
SIGNIFICANT WEATHER AND/OR OBSTRUCTIONS TO VISIBILITY. N/A MEANS
CURRENT SKY AND/OR WEATHER CONDITIONS ARE NOT AVAILABLE.

MNZ060>063-068>070-250500-
   Twin Cities Metro

CITY           SKY/WX    TMP DP  RH WIND       PRES   REMARKS
TWIN CITIES    PTCLDY    57  46  66 W7        30.07S
ST PAUL        CLEAR     58  47  66 W12       30.07S
CRYSTAL        CLEAR     55  45  68 W7        30.06S
BLAINE         CLEAR     55  46  71 W6        30.06F
LAKEVILLE      CLEAR     52  48  87 W3        30.08S
EDEN PRAIRIE   CLEAR     56  47  71 W5        30.07S
SOUTH ST PAUL  CLEAR     58  46  63 W6        30.07S
LAKE ELMO      FAIR      55  46  71 W5        30.07S
$$
MNZ001>005-007-008-013>017-022>024-027-028-250500-
   Northwest Minnesota

CITY           SKY/WX    TMP DP  RH WIND       PRES   REMARKS
BEMIDJI        LGT RAIN  53  52  97 NW12      30.06R
HALLOCK        DRIZZLE   52  46  82 NW10      30.16S
ROSEAU         LGT RAIN  50  45  81 NW7       30.12R
WARROAD        LGT RAIN  50  46  87 NW6       30.11R
THIEF RVR FALL LGT RAIN  50  48  93 NW15      30.14R
CROOKSTON      CLOUDY    48  48 100 N15       30.16S
FOSSTON        RAIN      48  46  93 NW13G21   30.12R
DETROIT LAKES  DRIZZLE   48  46  93 NW20      30.14R
MOORHEAD       CLOUDY    50  46  87 NW7       30.18S
PARK RAPIDS    CLOUDY    52  47  83 NW12      30.08R
MAHNOMEN       CLOUDY    49  48  97 NW14      30.12R FOG
$$
MNZ006-009>011-018-025>026-250500-
   North Central Minnesota

CITY           SKY/WX    TMP DP  RH WIND       PRES   REMARKS
BAUDETTE       CLOUDY    54  52  93 N13G18    30.06R
FLAG ISLAND    CLOUDY    54  48  82 N14       30.08S
INTL FALLS     RAIN      53  52  96 N8        30.03R
WASKISH        CLOUDY    55  52  88 N8        30.05R
BIG FORK       PTCLDY    52  48  87 CALM      30.03R
LONGVILLE      CLOUDY    54  50  87 W8        30.05S
GRAND RAPIDS   MOCLDY    55  47  74 NW6       30.04R
CRANE LAKE     CLOUDY    54  52  94 CALM      30.02R
ORR            CLOUDY    54  48  82 CALM      29.99S
COOK           CLOUDY    54  52  94 CALM      30.01S
WALKER         CLOUDY    50  49  96 W7        30.06S
$$
MNZ012-019>021-037-250500-
   Northeast Minnesota

CITY           SKY/WX    TMP DP  RH WIND       PRES   REMARKS
DULUTH         MOCLDY    53  49  86 W9        29.99S
ELY            LGT RAIN  54  50  87 CALM      29.99S
HIBBING        CLOUDY    54  49  83 NW5       30.00R
EVELETH        CLOUDY    58  49  73 N3        30.01S
DULUTH HARBOR  CLOUDY    61  52  72 W10       29.99S
TWO HARBORS    CLOUDY    59  52  77 CALM      29.96S
SILVER BAY     CLOUDY    55  50  82 CALM      29.96R
GRAND MARAIS     N/A     48  48 100 SW5       29.94S
G MARAIS ARPRT DRIZZLE   52  48  87 NW5       29.96F
$$
MNZ029>031-032-039>041-046>048-054>057-064-250500-
   West Central Minnesota

CITY           SKY/WX    TMP DP  RH WIND       PRES   REMARKS
FERGUS FALLS   CLOUDY    50  50 100 NW17G23   30.15R FOG
WHEATON        CLOUDY    55  45  67 NW14G22   30.19R
MORRIS         MOCLDY    55  46  71 NW15      30.15R
ALEXANDRIA     MOCLDY    54  47  77 NW10      30.14R
ELBOW LAKE     CLOUDY    53  48  84 NW17G25   30.16R
WADENA         CLOUDY    50  46  87 NW12      30.11R
GLENWOOD       MOCLDY    55  46  71 NW14G22   30.13R
APPLETON       PTCLDY    57  45  62 NW15G22   30.15S
BENSON         PTCLDY    55  46  71 N12       30.16R
ORTONVILLE     CLOUDY    57  45  62 NW15G23   30.17R
MADISON        CLOUDY    61  46  59 NW15      30.17R
WILLMAR        MOCLDY    57  50  77 NW13      30.14S
$$
MNZ033>034-036-042>043-049>051-058-059-250500-
   Central Minnesota

CITY           SKY/WX    TMP DP  RH WIND       PRES   REMARKS
ST CLOUD       CLOUDY    54  51  90 NW14      30.09R
SAUK CENTRE    CLOUDY    55  47  75 NW13G20   30.11S
PAYNESVILLE    CLOUDY    55  48  76 NW8       30.12R
AITKIN         CLEAR     52  48  87 W3        30.03S
PINE RIVER     CLOUDY    52  48  87 W5        30.10R
BRAINERD       CLOUDY    54  49  83 NW8G22    30.07R
STAPLES        CLOUDY    52  48  87 NW9       30.09S
LONG PRAIRIE   CLOUDY    52  46  82 W10       30.11R
LITTLE FALLS   CLOUDY    54  46  76 NW8       30.09S
LITCHFIELD     MOCLDY    59  48  67 NW14G22   30.11R
BUFFALO        MOCLDY    57  46  67 W10G16    30.09S
MAPLE LAKE     MOCLDY    57  50  76 NW9G16    30.10R
HUTCHINSON     CLOUDY    58  48  69 W8G17     30.12R
$$
MNZ037-044-045-052-053-250500-
   East Central Minnesota

CITY           SKY/WX    TMP DP  RH WIND       PRES   REMARKS
PRINCETON      MOCLDY    57  48  72 W13G18    30.07S
MORA           CLEAR     54  46  76 W6        30.07R
CAMBRIDGE      CLEAR     57  45  62 W5        30.05R
RUSH CITY      MOCLDY    54  48  82 W5        30.05S
MOOSE LAKE     CLEAR     48  46  93 W7        30.01S
HINCKLEY       MOCLDY    52  48  87 W6        30.04R
CLOQUET        MOCLDY    54  46  76 W5        30.00F
MCGREGOR       PTCLDY    54  48  82 W7        30.04R
$$
MNZ071>073-080-081-089-090-097-098-250500-
   Southwest Minnesota

CITY           SKY/WX    TMP DP  RH WIND       PRES   REMARKS
MONTEVIDEO     CLOUDY    57  46  67 N9        30.16R
GRANITE FALLS  CLOUDY    59  48  65 NW12      30.17R
CANBY          CLOUDY    58  46  63 W14G20    30.19R
MARSHALL       CLOUDY    59  44  57 NW14      30.18R
REDWOOD FALLS  PTCLDY    57  43  59 NW13      30.14R
OLIVIA         CLOUDY    55  45  67 NW12      30.13S
PIPESTONE      MOCLDY    57  43  58 N14G20    30.20R
WINDOM         PTCLDY    55  41  58 NW7       30.16R
WORTHINGTON    CLEAR     50  42  74 NW8       30.19R
JACKSON        MOCLDY    54  41  62 CALM      30.17R
TRACY          MOCLDY    59  45  60 NW12G18   30.17R
SLAYTON        CLOUDY    58  41  54 NW13G21   30.18R
$$
MNZ065>067-074>077-082>085-091>093-250500-
   South Central Minnesota

CITY           SKY/WX    TMP DP  RH WIND       PRES   REMARKS
MANKATO        CLEAR     56  44  64 W7        30.12R
NEW ULM        CLEAR     57  43  58 NW13G20   30.13R
ST JAMES       CLEAR     55  43  62 W9        30.15R
FAIRMONT       CLEAR     54  43  66 NW9       30.15R
GLENCOE        CLOUDY    58  50  73 W9        30.10R
FARIBAULT      MOCLDY    55  46  71 W5        30.10R
OWATONNA       PTCLDY    54  45  71 W3        30.11R
WASECA         CLEAR     50  45  81 W6        30.12R
ALBERT LEA     CLEAR     54  45  71 W3        30.12R
$$
MNZ078>079-086>088-094>096-250500-
   Southeast Minnesota

CITY           SKY/WX    TMP DP  RH WIND       PRES   REMARKS
ROCHESTER      CLEAR     52  46  80 W8        30.10R
RED WING       CLEAR     55  45  67 NW3       30.06R
STANTON        PTCLDY    55  48  75 W5        30.08R
DODGE CENTER   CLEAR     54  43  66 W5        30.10R
WINONA         CLEAR     54  50  87 N3        30.07R
AUSTIN         CLEAR     54  45  71 W5        30.10S
PRESTON        CLEAR     51  44  76 W8        30.09S
$$
ABBREVIATIONS USED IN REMARKS
   TC - TEMPERATURES IN CELSIUS
  WCI - WIND CHILL INDEX
   HX - HEAT INDEX
  VSB - VISIBILITY
$$




USA.gov is the U.S. government's official web portal to all federal, state and local government web resources and services.